Regional Weather Roundup
Issued by NWS

Home | Current Version | Previous Version | Graphics & Text | Print | Product List | Glossary On
Versions: 1 2 3 4 5 6 7 8 9 10 11 12 13 14 15 16 17 18 19 20 21 22 23 24 25 26 27 28 29 30 31 32 33 34 35 36 37 38 39 40 41 42 43 44 45 46 47
000
ASUS45 KTFX 040910
RWRMT
MONTANA REGIONAL WEATHER ROUNDUP
NATIONAL WEATHER SERVICE GREAT FALLS MT
300 AM MDT SAT JUL 04 2015

NOTE: "FAIR" INDICATES FEW OR NO CLOUDS BELOW 12000 FEET WITH NO
SIGNIFICANT WEATHER AND/OR OBSTRUCTIONS TO VISIBILITY.

MTZ001>007-043-041000-
WEST OF THE DIVIDE

CITY           SKY/WX    TMP DP  RH WIND       PRES   REMARKS
KALISPELL      SUNNY     56  47  71 N3        29.82S
MISSOULA       CLEAR     67  45  45 NE3       29.89R
BUTTE          CLEAR     55  37  50 S6        30.04R
MULLAN PASS    CLEAR     69  33  26 VRB3      30.07S
DEER LODGE       N/A     57  43  58 W5        30.01S
EUREKA           N/A     64  46  52 CALM      29.80R
HAMILTON         N/A     66  45  45 S12       29.91S
PLAINS           N/A     62  46  55 CALM      29.86S
RONAN            N/A     60  50  69 CALM      29.91S
THOMPSON FALLS   N/A     60  46  59 CALM      29.88S
$$

MTZ008-052>055-041000-
SOUTHWEST MONTANA

CITY           SKY/WX    TMP DP  RH WIND       PRES   REMARKS
BOZEMAN        CLEAR     61  46  57 S7        29.93S
DILLON         CLEAR     64  36  35 S12       30.00R
W YELLOWSTONE  CLEAR     45  41  87 SW3       30.11R
THREE FORKS      N/A     56  56 100 CALM      29.93R
TWIN BRIDGES     N/A     58  41  53 E5        29.98R
$$

MTZ009-010-012-014-046-048-049-054-041000-
EAST SLOPES AND CENTRAL MONTANA

CITY           SKY/WX    TMP DP  RH WIND       PRES   REMARKS
CUT BANK       CLEAR     59  42  53 NW6       29.84S
GREAT FALLS    CLEAR     65  45  48 SW12      29.83S
MALMSTROM AFB  CLEAR     70  47  44 SW13      29.82S
HELENA         CLEAR     70  40  33 E3        29.89R
$$

MTZ011-013-016-021-045-047-050-051-041000-
NORTH CENTRAL MONTANA

CITY           SKY/WX    TMP DP  RH WIND       PRES   REMARKS
HAVRE          CLEAR     65  47  52 NW3       29.73F
LEWISTOWN      CLEAR     64  50  60 SE3       29.86S
CHINOOK          N/A     70  50  49 CALM      29.73F
FORT BENTON      N/A     68  50  52 SW3       29.78S
$$

MTZ017>020-022>027-061-062-041000-
NORTHEAST MONTANA

CITY           SKY/WX    TMP DP  RH WIND       PRES   REMARKS
GLASGOW        CLEAR     64  55  72 E9        29.75S
JORDAN           N/A     62  51  67 CALM      29.78F
SIDNEY         CLEAR     64  61  88 S3        29.80F
WOLF POINT     PTCLDY    64  60  87 N5        29.76S FOG
PLENTYWOOD       N/A     64  63  94 N5        29.80R
POPLAR           N/A     66  63  88 CALM      29.77S
SCOBEY           N/A     64  58  81 CALM      29.79S
$$

MTZ028>42-056>058-041000-
SOUTHCENTRAL AND SOUTHEAST MONTANA

CITY           SKY/WX    TMP DP  RH WIND       PRES   REMARKS
BAKER          PTCLDY    63  58  83 SE8       29.85F
BILLINGS       CLEAR     71  52  50 S6        29.85F
LIVINGSTON     CLEAR     55  46  71 CALM      29.93F
MILES CITY     CLEAR     69  61  75 N5        29.80S
EKALAKA          N/A     66  56  70 SE2       29.87F
FORSYTH          N/A     66  55  68 CALM      29.79S
LAUREL           N/A     65  48  53 N2        29.85F
ROUNDUP          N/A     66  50  56 CALM      29.78S
$$

REGIONAL REPORTS...DAKOTAS

CITY           SKY/WX    TMP DP  RH WIND       PRES   REMARKS
WILLISTON      PTCLDY    70  61  73 S5        29.80F HAZE
MINOT          CLEAR     64  60  87 CALM      29.81F FOG
DICKINSON      CLEAR     63  60  90 S8        29.85S FOG
BEACH          FAIR      63  63 100 S9        29.84F
CROSBY           N/A     66  66 100 S13       29.79F FOG
BISMARCK       PTCLDY    65  63  93 NE5       29.86F FOG
GRAND FORKS    MOCLDY    60  58  92 SE5       29.88S FOG
FARGO          CLEAR     65  60  84 SE6       29.90F HAZE
BUFFALO SD       N/A     64  59  83 SE9       29.81F
RAPID CITY     MOCLDY    62  59  90 SE7       29.90F
$$

REGIONAL REPORTS...WYOMING/IDAHO/WASHINGTON

CITY           SKY/WX    TMP DP  RH WIND       PRES   REMARKS
GILLETTE       CLEAR     62  56  80 SE5       29.92F
SHERIDAN       CLEAR     60  54  80 CALM      29.87F
BUFFALO WY     PTCLDY    66  50  56 W6        29.95F
CODY           CLEAR     66  48  52 SW8       29.96F
YELLOWSTONE LA   N/A     46  39  76 NW3       30.21S
IDAHO FALLS    PTCLDY    61  55  81 SW6       29.95R
SALMON         CLEAR     59  45  58 CALM      29.94S
BOISE          MOCLDY    77  39  25 SE6       29.81F
SPOKANE        PTCLDY    79  36  21 SE3       29.79S
$$

REGIONAL REPORTS...ALBERTA

CITY           SKY/WX    TMP DP  RH WIND       PRES   REMARKS
EDMONTON       CLEAR     61  39  44 NW5       29.87S
CALGARY        MOCLDY    59  48  67 N10       29.95R
LETHBRIDGE     CLEAR     63  57  82 NE6       29.80S HAZE
MEDICINE HAT   CLOUDY    68  57  68 N9        29.75R
CARDSTON         N/A     64  46  52 SW9         N/A
MILK RIVER       N/A     61  50  67 W8          N/A
ONEFOUR          N/A     68  45  42 N5          N/A
$$

REGIONAL REPORTS...SASKATCHEWAN

CITY           SKY/WX    TMP DP  RH WIND       PRES   REMARKS
SWIFT CURRENT  PTCLDY    64  55  72 SE12G20   29.72F
REGINA         TSTM      64  64 100 N6        29.79F
SASKATOON      CLOUDY    63  57  82 N8        29.74S
CYPRESS HILLS    N/A     64  45  48 S5          N/A
$$



USA.gov is the U.S. government's official web portal to all federal, state and local government web resources and services.